Track PUJIANG 1 (PJ-1) now! 10-day predictions PUJIANG 1 (PJ-1) is classified as:
1 40925U 15051A 19052.76833557 .00000481 00000-0 17369-4 0 9996 2 40925 97.1743 80.6641 0014175 141.7733 306.8132 15.33042079190672